Location: Montreal
(45.5000°N, 73.5833°W)
Time: 23:25:52
(UTC-05:00)

Vanguard 1 - Pass Details

Date: 20 October 2017
Orbit: 650 x 3834 km, 34.2° (Epoch: 17 November)

Event Time Altitude Azimuth Distance (km) Brightness Sun altitude
Rises 08:13:05 0° 281° (W) 7,597 13.9 8.3°
Reaches altitude 10° 08:19:23 10° 271° (W) 6,810 13.8 9.3°
Maximum altitude 08:35:59 26° 226° (SW) 5,558 13.8 11.9°
Drops below altitude 10° 08:51:07 10° 178° (S) 6,111 14.7 14.2°
Sets 08:56:28 0° 167° (SSE) 6,703 15.1 15.0°
